Starlink 3133

operational
NORAD ID: 49416 Int'l Des: 2021-104 Owner: SPXS Country: US Constellation: starlink
LEOCIRCULAR

About Starlink 3133

Description loading...

Live Position

Loading 3D Globe...

Upcoming Passes

Altitude History

Altitude vs Time

uPlot chart will show altitude changes over time

Two-Line Element Set

1 49416U 21104J 25304.14266589 .00000212 00000-0 31408-4 0 9992
2 49416 53.2143 90.6801 0001401 84.8839 275.2313 15.08837775219077
Epoch: Oct 31, 2025 • Age: 9 hours

Current Status

Altitude 542.2 km
Velocity 7.60 km/s
Sub-Earth Point 38.01°N, 14.32°E
Launch Date Nov 13, 2021
Age 3.9 years
Type internet

Technical Details

Classification Payload
Mass 290.00 kg
Dry Mass 270.00 kg
Total Mass 290.00 kg
Length 0.20 m
Diameter 2.80 m
Span 9.00 m
Shape Box + pan
Manufacturer SPXS
Bus Type Starlink
Phase Status In Orbit
Owner/State SPXS/US

Large Constellations

Loading constellations...